Simultaneous Nadir Overpasses (SNOs) Predictions

Prediction of SNOs between GOES-14 and AQUA Satellite Orbit:

Table of predicted SNOs for the next 14.0 days since TLE Epoch: 4/10/2021
Index Date Time (GOES-14) GOES-14 Lat,Lon AQUA Lat,Lon Distance(km) Time Diff (sec)
1 04/10/2021 08:32:57 0.15,-104.30 0.24,-104.66 41.08 80
2 04/12/2021 08:23:25 0.15,-104.30 -0.38,-101.70 295.19 80
3 04/12/2021 20:44:50 -0.15,-104.32 -0.68,-106.90 293.14 80
4 04/14/2021 20:29:58 -0.15,-104.32 -0.06,-103.94 42.52 80
5 04/16/2021 20:17:46 -0.15,-104.31 0.57,-100.99 378.15 80
6 04/17/2021 08:39:01 0.15,-104.28 0.53,-106.14 211.65 80
7 04/19/2021 08:29:29 0.15,-104.27 -0.10,-103.18 124.17 80
8 04/19/2021 20:50:53 -0.15,-104.32 -1.02,-108.37 460.88 80
9 04/21/2021 08:17:16 0.16,-104.26 -0.68,-100.21 460.06 80
10 04/21/2021 20:38:41 -0.16,-104.31 -0.38,-105.42 125.42 80
11 04/23/2021 20:23:49 -0.16,-104.30 0.26,-102.46 210.08 80
